Location: Unspecified
(40.7945°N, 0.0000°E)
Time: 18:25:45
(UTC+00:00)

TIGRISAT - Visible Passes

Search period start: 23 August 2019 00:00
Search period end: 02 September 2019 00:00
Orbit: 606 x 688 km, 97.7° (Epoch: 22 August)

Date Brightness Start Highest point End Pass type
(mag) Time Alt. Az. Time Alt. Az. Time Alt. Az.
23 Aug ? 19:46:16 10° NE 19:48:52 15° E 19:49:12 15° E visible
23 Aug ? 21:21:25 10° N 21:25:52 51° WNW 21:26:55 41° WSW visible
24 Aug ? 20:10:56 10° NE 20:14:50 27° E 20:15:02 27° E visible
24 Aug ? 21:47:33 10° N 21:51:26 28° WNW 21:52:45 24° W visible
25 Aug ? 20:36:13 10° NNE 20:40:41 52° E 20:40:51 51° ESE visible
25 Aug ? 22:14:09 10° NNW 22:16:54 16° WNW 22:18:34 13° W visible
26 Aug ? 21:01:52 10° N 21:06:26 82° WNW 21:06:41 78° SW visible
27 Aug ? 19:52:11 10° NE 19:54:47 17° E 19:54:47 17° E visible
27 Aug ? 21:27:46 10° N 21:32:05 43° WNW 21:32:30 41° W visible
28 Aug ? 20:17:03 10° NNE 20:20:36 31° E 20:20:36 31° E visible
28 Aug ? 21:54:00 10° NNW 21:57:37 24° WNW 21:58:19 23° W visible
29 Aug ? 20:42:27 10° NNE 20:46:25 56° ENE 20:46:25 56° ENE visible
29 Aug ? 22:20:52 10° NNW 22:23:02 13° WNW 22:24:08 12° WNW visible
30 Aug ? 21:08:10 10° N 21:12:14 64° NW 21:12:14 64° NW visible
31 Aug ? 19:58:10 10° NE 20:00:19 18° ENE 20:00:19 18° ENE visible
31 Aug ? 21:34:09 10° N 21:38:02 36° WNW 21:38:02 36° WNW visible
01 Sep ? 20:23:12 10° NNE 20:26:07 31° ENE 20:26:07 31° ENE visible
01 Sep ? 22:00:30 10° NNW 22:03:46 20° WNW 22:03:51 20° WNW visible
